Content
SEND FEEDBACK

Daily
Averages
Monthly
Summary
United States of America

WEBBERS FALLS, OKLAHOMA


Home > North America > United States > Oklahoma
Elevation: 496 feet     Latitude: 35 29N     Longitude: 095 12W

WEATHER
 
SELECT A DAY
Number of Records: 183,109;   Date Range: 7/12/96 - 7/26/14
 
SHARE

PRINT THIS DATA

[ ← Previous Day ]
WEATHER ALMANAC - FEBRUARY 16, 2013
[ Next Day → ]
[ °C ]   °F
Weather ElementAverageHighLow
Temperature33.4 °F42.1 °F (4:53 pm)26.1 °F (6:53 am)
Dewpoint16.7 °F25 °F (3:53 am)10 °F (2:53 pm)
Humidity52.9 %82 % (3:53 am)29 % (3:53 pm)
Barometer30.31 in30.43 in (9:53 am)30.15 in (11:53 pm)
Wind Speed7.7 mph12.7 mph (8:53 am)
Weather ElementAverage
Visibility10 mi
Wind DirectionSSW (207 °)

Weather ElementTotal
Precipitation---
Heating Degree Days30.9 (Base 65)
Averaged from 23 records on February 16, 2013
WEATHER CONDITIONS BREAKOUT
WIND DIRECTION BREAKOUT
WEATHER BY HOUR - FEBRUARY 16, 2013
[ °C ]   °F
Local TimeTemperatureDewpointHumidityBarometerVisibilityWind DirectionWind SpeedGust SpeedPrecipitationEventsConditions
1:53 AM32.0 °F19.9 °F61 %30.36 in10.0 miWest (260°)8.1 mphMostly Cloudy
2:53 AM32.0 °F21.9 °F66 %30.36 in10.0 miWNW (300°)9.2 mphMostly Cloudy
3:53 AM30.0 °F25.0 °F82 %30.37 in10.0 miNNW (330°)10.4 mphMostly Cloudy
4:53 AM28.9 °F24.1 °F82 %30.37 in10.0 miNW (310°)9.2 mphClear
5:53 AM28.0 °F21.9 °F78 %30.38 in10.0 miNW (310°)8.1 mphClear
6:53 AM26.1 °F17.1 °F69 %30.39 in10.0 miNW (310°)8.1 mphClear
7:53 AM28.0 °F16.0 °F61 %30.40 in10.0 miNW (310°)10.4 mphClear
8:53 AM30.0 °F17.1 °F59 %30.42 in10.0 miNW (320°)12.7 mphClear
9:53 AM32.0 °F18.0 °F56 %30.43 in10.0 miNNW (340°)11.5 mphClear
10:53 AM34.0 °F17.1 °F50 %30.43 in10.0 miNNW (330°)6.9 mphClear
11:53 AM35.1 °F16.0 °F46 %30.40 in10.0 miVariable3.5 mphClear
12:53 PM37.0 °F12.9 °F37 %30.36 in10.0 miCalmMostly Cloudy
1:53 PM37.9 °F12.0 °F35 %30.31 in10.0 miCalmOvercast
2:53 PM39.0 °F10.0 °F30 %30.28 in10.0 miSSW (210°)5.8 mphOvercast
3:53 PM41.0 °F10.9 °F29 %30.25 in10.0 miSSE (160°)10.4 mphOvercast
4:53 PM42.1 °F12.9 °F31 %30.23 in10.0 miSSE (150°)10.4 mphOvercast
5:53 PM39.0 °F15.1 °F38 %30.22 in10.0 miSouth (170°)6.9 mphClear
6:53 PM35.1 °F14.0 °F42 %30.21 in10.0 miSE (140°)5.8 mphClear
7:53 PM33.1 °F17.1 °F52 %30.20 in10.0 miSSE (160°)5.8 mphClear
8:53 PM32.0 °F16.0 °F52 %30.18 in10.0 miSSE (160°)8.1 mphClear
9:53 PM33.1 °F16.0 °F50 %30.18 in10.0 miSSE (160°)9.2 mphClear
10:53 PM32.0 °F16.0 °F52 %30.17 in10.0 miSSE (160°)8.1 mphClear
11:53 PM30.9 °F18.0 °F59 %30.15 in10.0 miSouth (170°)8.1 mphClear
Hourly data recorded from KMKO, located miles away from Webbers Falls, Oklahoma







STORIES FROM OUR PARTNERS